Regional Weather Roundup
Issued by NWS Mt. Holly, NJ

Home | Current Version | Previous Version | Text Only | Print | Product List | Glossary On
Versions: 1 2 3 4 5 6 7 8 9 10 11 12 13 14 15 16 17 18 19 20 21 22 23 24 25 26 27 28
000
ASUS41 KPHI 250110
RWRPHI

REGIONAL WEATHER ROUNDUP
NATIONAL WEATHER SERVICE MOUNT HOLLY NJ
900 PM EDT THU APR 24 2014

NOTE:  "FAIR" INDICATES FEW OR NO CLOUDS BELOW 12,000 FEET WITH NO
SIGNIFICANT WEATHER AND/OR OBSTRUCTIONS TO VISIBILITY.

 * = STATION DOES NOT REPORT PRECIPITATION (E.G. RAIN, SNOW, ETC.)
        OR FOG.

NJZ015>026-250200-
SOUTHERN NEW JERSEY

CITY           SKY/WX    TMP DP  RH WIND       PRES   REMARKS
POMONA         CLEAR     49  19  30 N5        30.00R
RIO GRANDE*    PTCLDY    55  30  38 W9        30.03R
MILLVILLE      CLEAR     48  25  40 SW3       30.01R
WRIGHTSTOWN    CLEAR     53  15  22 NW6       29.98R
MOUNT HOLLY    CLEAR     55  14  19 N8        30.00R
TRENTON        CLEAR     53  12  19 NW7       30.00R

$$
NJZ001>014-250200-
NORTHERN NEW JERSEY

CITY           SKY/WX    TMP DP  RH WIND       PRES   REMARKS
SUSSEX         CLEAR     52  15  23 CALM      30.01R
ANDOVER*         N/A     50  16  25 CALM      30.01R
MORRISTOWN     CLEAR     54  12  19 NW6G12    30.00R
NEWARK         PTCLDY    57  11  16 N16       29.98R
TETERBORO      CLEAR     57  11  16 NW12G17   29.97R
CALDWELL       CLEAR     54  15  21 NW9       30.00R
SOMERVILLE     CLEAR     52  13  21 NW8       29.99R
ALLAIRE*       CLEAR     55  12  18 NW10      29.99R
TOMS RIVER*    CLEAR     54  16  22 NW5       29.99R

$$
PAZ043-044-047-054-055-060>062-066>071-250200-
EASTERN PENNSYLVANIA

CITY           SKY/WX    TMP DP  RH WIND       PRES   REMARKS
PHILADELPHIA   PTCLDY    58  13  17 N8        30.02R
NORTH PHILA    CLEAR     55  12  18 N10       30.02R
BLUE BELL      CLEAR     55  12  18 CALM      30.01R
DOYLESTOWN     CLEAR     52  13  21 NW6       30.00R
QUAKERTOWN*    CLEAR     52  14  22 N7        30.02R
POTTSTOWN      CLEAR     52  14  22 N7        30.03R
LANCASTER      CLEAR     51  19  28 N5        30.01R
COATESVILLE    CLEAR     50  14  23 NW6       30.02R
READING        CLEAR     54  16  22 N7        30.01R
ALLENTOWN      CLEAR     50  13  22 NW3       30.02R
MOUNT POCONO   CLEAR     44   8  23 NW12      30.00R
HAZLETON       CLEAR     48   3  15 N9        30.04S
WILKES BARRE   CLEAR     48  10  21 NW9G17    30.04R

$$
DEZALL-MDZ008-012-015-019-020-250200-
DELAWARE AND EASTERN MARYLAND

CITY           SKY/WX    TMP DP  RH WIND       PRES   REMARKS
WILMINGTON     CLEAR     55  18  23 W5        30.02R
DOVER          CLEAR     55  26  32 SW2       29.99R
GEORGETOWN     CLEAR     55  24  30 CALM      30.03R
EASTON         CLEAR     55  30  38 CALM      30.06R
PATUXENT       PTCLDY    45  34  65 CALM      30.03R
OCEAN CITY     PTCLDY    47  29  49 CALM      30.03R
WALLOPS ISLAND PTCLDY    53  33  46 W3        30.04R
CAMBRIDGE      PTCLDY    52  36  54 CALM      30.03R
SALISBURY      PTCLDY    53  30  41 CALM      30.03R

$$
PAZ001-021-NYZ056-072-MDZ011-DCZ001-250200-
OTHER NEARBY LOCATIONS

CITY           SKY/WX    TMP DP  RH WIND       PRES   REMARKS
HARRISBURG     PTCLDY    54  35  48 CALM      30.00R
STATE COLLEGE  CLEAR     55   9  15 CALM      30.00S
WILLIAMSPORT   CLEAR     49  19  30 S3        30.02S
BINGHAMTON     CLEAR     41  18  39 NW5       30.04R
NEW YORK CITY  CLEAR     56  10  16 VRB5      30.00R
BALTIMORE      MOCLDY    53  25  33 CALM      30.01R
WASHINGTON DC  MOCLDY    62  25  24 CALM      30.03R

$$



USA.gov is the U.S. government's official web portal to all federal, state and local government web resources and services.